Content
SEND FEEDBACK

Daily
Averages
Monthly
Summary
United States of America

WILMINGTON, NORTH CAROLINA


Home > North America > United States > North Carolina
Elevation: 72 feet     Latitude: 34 16N     Longitude: 077 54W

WEATHER
 
SELECT A DAY
Number of Records: 208,995;   Date Range: 1/1/95 - 8/30/14
 
SHARE

PRINT THIS DATA

[ ← Previous Day ]
WEATHER ALMANAC - NOVEMBER 8, 2013
[ Next Day → ]
[ °C ]   °F
Weather ElementAverageHighLow
Temperature49.5 °F60.1 °F (2:53 pm)39 °F (10:53 pm)
Dewpoint31.4 °F37.9 °F (5:53 pm)26.1 °F (10:53 am)
Humidity53.3 %82 % (10:53 pm)28 % (1:53 pm)
Barometer30.24 in30.32 in (9:53 pm)30.09 in (1:53 am)
Wind Speed7.5 mph15 mph (9:53 am)
Wind Gust23 mph (9:53 am)
Weather ElementAverage
Visibility10 mi
Wind DirectionS (183.9 °)

Weather ElementTotal
Precipitation---
Heating Degree Days15.5 (Base 65)
Averaged from 23 records on November 8, 2013
WEATHER CONDITIONS BREAKOUT
WIND DIRECTION BREAKOUT
WEATHER BY HOUR - NOVEMBER 8, 2013
[ °C ]   °F
Local TimeTemperatureDewpointHumidityBarometerVisibilityWind DirectionWind SpeedGust SpeedPrecipitationEventsConditions
1:53 AM50.0 °F33.1 °F52 %30.09 in10.0 miNNW (340°)13.8 mphClear
2:53 AM48.0 °F32.0 °F54 %30.11 in10.0 miNNW (340°)11.5 mphClear
3:53 AM48.0 °F32.0 °F54 %30.14 in10.0 miNorth (350°)12.7 mphClear
4:53 AM46.9 °F32.0 °F56 %30.17 in10.0 miNorth (350°)10.4 mph18.4 mphClear
5:53 AM46.0 °F32.0 °F58 %30.19 in10.0 miNorth (350°)10.4 mphClear
6:53 AM45.0 °F30.9 °F58 %30.22 in10.0 miNorth (360°)9.2 mph19.6 mphClear
7:53 AM46.9 °F30.9 °F54 %30.25 in10.0 miNorth (10°)10.4 mphClear
8:53 AM51.1 °F30.0 °F44 %30.27 in10.0 miNNE (20°)13.8 mph18.4 mphClear
9:53 AM53.1 °F28.9 °F40 %30.27 in10.0 miNorth (10°)15.0 mph23.0 mphClear
10:53 AM55.0 °F26.1 °F33 %30.27 in10.0 miNorth (360°)15.0 mph23.0 mphClear
11:53 AM57.0 °F27.0 °F32 %30.26 in10.0 miNorth (350°)11.5 mph23.0 mphClear
12:53 PM57.9 °F27.0 °F31 %30.22 in10.0 miNorth (350°)9.2 mph17.3 mphClear
1:53 PM59.0 °F26.1 °F28 %30.21 in10.0 miNorth (10°)9.2 mphClear
2:53 PM60.1 °F27.0 °F28 %30.21 in10.0 miNNW (340°)8.1 mphClear
3:53 PM59.0 °F26.1 °F28 %30.22 in10.0 miNNW (330°)9.2 mphClear
4:53 PM55.9 °F28.9 °F36 %30.24 in10.0 miNorth (360°)3.5 mphClear
5:53 PM48.0 °F37.9 °F68 %30.26 in10.0 miCalmClear
6:53 PM46.0 °F37.9 °F73 %30.28 in10.0 miCalmClear
7:53 PM44.1 °F37.0 °F76 %30.29 in10.0 miCalmClear
8:53 PM42.1 °F36.0 °F79 %30.30 in10.0 miCalmClear
9:53 PM42.1 °F36.0 °F79 %30.32 in10.0 miCalmClear
10:53 PM39.0 °F34.0 °F82 %30.32 in10.0 miCalmClear
11:53 PM39.0 °F34.0 °F82 %30.32 in10.0 miCalmClear
Hourly data recorded from KILM, located miles away from Wilmington, North Carolina







STORIES FROM OUR PARTNERS